Tracking 18630 objects as of 25-May-2017
HD Live streaming from Space Station
objects crossing your sky now

COSMOS 1629

Track COSMOS 1629 now!
COSMOS 1629 is classified as:


NORAD ID: 15574
Int'l Code: 1985-016A
Perigee: 35,791.1 km
Apogee: 35,831.0 km
Inclination: 14.3 °
Period: 1,437.0 minutes
Semi major axis: 42182 km
RCS: 1.2589 m2 (large)
Launch date: February 21, 1985
Source: Commonwealth of Independent States (former USSR) (CIS)
Launch site: TYURATAM MISSILE AND SPACE COMPLEX (TTMTR)
Your satellite tracking list
Your tracking list is empty





NASA's NSSDC Master Catalog

Two Line Element Set (TLE):
1 15574U 85016A   17144.38677731 +.00000094 +00000-0 +00000-0 0  9994
2 15574 014.2805 344.2957 0004725 193.0422 045.3563 01.00210073117253
Source of the keplerian elements: AFSPC